Location: Central Coast
(33.3208°S, 151.2336°E)
Time: 15:04:42
(UTC+11:00)

Hubble Space Telescope - Pass Details

Date: 08 October 2017
Orbit: 537 x 541 km, 28.5° (Epoch: 22 October)

Event Time Altitude Azimuth Distance (km) Brightness Sun altitude
Rises 19:42:27 0° 281° (W) 2,687 5.7 -9.0°
Reaches altitude 10° 19:45:51 10° 310° (NW) 1,791 4.0 -9.7°
Maximum altitude 19:47:42 13° 336° (NNW) 1,621 3.3 -10.1°
Drops below altitude 10° 19:49:32 10° 3° (N) 1,786 3.3 -10.5°
Enters shadow 19:51:45 - 25° (NNE) 2,313 3.6 -10.9°
